Eelde, Niederlande

11:45 PM CEST am 28. April 2017 (GMT +0200)
Eelde

Wetter Verlauf für EHGG - Januar, 2017

Change the Weather History Date:

Mittwoch, Januar 11, 2017

  Actual Average Record
Temperature  
mittlereTemperatur 44 °F -  
Max. Temperatur 48 °F 39 °F 51 °F (2008)
Min.Temperatur 39 °F 29 °F 12 °F (2003)
Degree Days  
Heizgradtage 22    
Moisture  
Taupunkt 38 °F    
Average Humidity 81    
Maximum Humidity 100    
Minimum Humidity 58    
Niederschlag  
Niederschlag 0.24 inch 0.08 inch - ()
Luftdruck in Meereshöhe  
Luftdruck in Meereshöhe 29.58 inch    
Wind  
Windgeschwindigkeit 15 mph ()    
Max. Windgeschwindigkeit 28 mph    
Max Gust Speed 40 mph    
Sichtweite 5.3 Meilen    
Ereignisse Regen    
Averages and records for this station are not official NWS values.
T = Trace of Precipitation, MM = Missing Value Source: Averaged Metar Reports

Daily Weather History Graph

Daily Weather History Graph

Search for Another Location

Airport or City:

Trip Planner

Search our weather history database for the weather conditions in past years. The results will help you decide how hot, cold, wet, or windy it might be!

Date:

Astronomie

Jan. 11, 2017 Aufgang Untergang
Genaue Zeit 08:43 CET 16:40 CET
Bürgerliche Dämmerung 08:02 CET 17:21 CET
Nautische Dämmerung 07:18 CET 18:05 CET
Astronomische Dämmerung 06:36 CET 18:47 CET
Mond 16:03 CET (1/11) 07:17 CET (1/11)
Länge des sichtbaren Lichts 9h 19m
Tageslänge
7h 57m
Zweites Viertel, 99% of the Moon is Illuminated
Jan 11
Zweites Viertel
Jan 12
Vollmond
Jan 19
Letztes Viertel
Jan 28
Neu
Feb 4
Erstes Viertel

Hourly Weather History & Observations

Zeit (CET) Temp. Windchill Taupunkt Feuchtigkeit Druck Sichtweite Wind Dir Windgeschwindigkeit Böengeschwindigkeit Precip Ereignisse Wetterzustand
12:00 AM 40 °F - 39 °F 95% 29.81 inch 2 mi Süd-Südwest 8.9 mph - -   Dunst
12:25 AM 39.2 °F 32.0 °F 39.2 °F 100% 29.80 inch 2.5 mi Süd 11.5 mph - N/A   Bedeckt
12:55 AM 41.0 °F 34.3 °F 39.2 °F 93% 29.80 inch - Süd-Südwest 11.5 mph - N/A   Bedeckt
1:00 AM 41 °F - 39 °F 92% 29.80 inch 3 mi Süd-Südwest 11.2 mph - -   Dunst
1:25 AM 41.0 °F 34.7 °F 39.2 °F 93% 29.77 inch 2.8 mi Süd-Südwest 10.4 mph - N/A   Wolkig
1:55 AM 41.0 °F 33.9 °F 41.0 °F 100% 29.77 inch - Süd-Südwest 12.7 mph - N/A   Bedeckt
2:00 AM 41 °F - 40 °F 96% 29.78 inch 3 mi Süd-Südwest 11.2 mph - - Regen Regen
2:25 AM 41.0 °F 34.3 °F 41.0 °F 100% 29.77 inch - Süd-Südwest 11.5 mph - N/A   Bedeckt
2:55 AM 42.8 °F 36.6 °F 41.0 °F 93% 29.74 inch - Süd-Südwest 11.5 mph - N/A   Bedeckt
3:00 AM 42 °F - 41 °F 95% 29.74 inch 2 mi Süd-Südwest 13.4 mph - -   Dunst
3:25 AM 42.8 °F 36.2 °F 41.0 °F 93% 29.71 inch 2.2 mi Süd-Südwest 12.7 mph - N/A   Bedeckt
3:55 AM 42.8 °F 35.8 °F 41.0 °F 93% 29.71 inch - Süd-Südwest 13.8 mph - N/A   Bedeckt
4:00 AM 43 °F - 42 °F 92% 29.72 inch 2 mi Süd-Südwest 13.4 mph - -   Dunst
4:25 AM 42.8 °F 34.5 °F 41.0 °F 93% 29.71 inch 3.1 mi Südwest 18.4 mph - N/A   Bedeckt
4:55 AM 42.8 °F 35.1 °F 41.0 °F 93% 29.68 inch 3.1 mi Süd-Südwest 16.1 mph - N/A   Bedeckt
5:00 AM 43 °F - 41 °F 91% 29.68 inch 3 mi Süd-Südwest 15.7 mph - -   Dunst
5:25 AM 42.8 °F 35.1 °F 41.0 °F 93% 29.65 inch 3.7 mi Süd-Südwest 16.1 mph - N/A   Bedeckt
5:55 AM 42.8 °F 34.8 °F 41.0 °F 93% 29.62 inch 3.7 mi Süd-Südwest 17.3 mph - N/A   Wolkig
6:00 AM 43 °F - 41 °F 88% 29.63 inch 4 mi Süd-Südwest 17.9 mph - -   Dunst
6:25 AM 42.8 °F 34.8 °F 41.0 °F 93% 29.62 inch 5.0 mi Süd-Südwest 17.3 mph - N/A   Bedeckt
6:55 AM 42.8 °F 34.0 °F 41.0 °F 93% 29.62 inch 4.3 mi Süd-Südwest 20.7 mph - N/A   Bedeckt
7:00 AM 43 °F - 40 °F 86% 29.61 inch 3 mi Süd-Südwest 22.4 mph - - Regen Leichtes Nieseln
7:25 AM 42.8 °F 33.5 °F 41.0 °F 93% 29.56 inch 5.6 mi Süd-Südwest 23.0 mph 34.5 mph N/A   Bedeckt
7:55 AM 42.8 °F 33.3 °F 41.0 °F 93% 29.53 inch 4.3 mi Süd-Südwest 24.2 mph 35.7 mph N/A Regen Leichter Regen
8:00 AM 43 °F - 40 °F 87% 29.57 inch 5 mi Süd-Südwest 22.4 mph - - Regen Leichte Regenschauer
8:25 AM 42.8 °F 33.1 °F 41.0 °F 93% 29.53 inch 3.7 mi Süd-Südwest 25.3 mph - N/A Regen Leichter Regen
8:55 AM 42.8 °F 33.1 °F 41.0 °F 93% 29.50 inch 1.7 mi Südwest 25.3 mph 38.0 mph N/A Regen Leichter Regen
9:00 AM 43 °F - 42 °F 92% 29.50 inch 2 mi Südwest 24.6 mph - - Regen Nieselregen
9:25 AM 42.8 °F 33.1 °F 42.8 °F 100% 29.47 inch 1.6 mi Südwest 25.3 mph - N/A Regen Leichter Regen
9:55 AM 44.6 °F 35.1 °F 42.8 °F 93% 29.44 inch 6.2 mi Südwest 27.6 mph - N/A   Bedeckt
10:25 AM 44.6 °F 35.5 °F 42.8 °F 93% 29.44 inch 5.6 mi West-Südwest 25.3 mph - N/A   Bedeckt
10:55 AM 46.4 °F 39.0 °F 42.8 °F 87% 29.44 inch 6.2 mi West-Südwest 19.6 mph - N/A   Wolkig
11:00 AM 46 °F - 44 °F 88% 29.45 inch 9 mi West-Südwest 22.4 mph - - Regen Regenschauer
11:25 AM 46.4 °F 38.3 °F 42.8 °F 87% 29.44 inch 4.3 mi West 23.0 mph 39.1 mph N/A Regen Leichter Regen
11:55 AM 46.4 °F 39.2 °F 42.8 °F 87% 29.44 inch 6.2 mi West 18.4 mph - N/A   Bedeckt
12:00 PM 47 °F - 43 °F 80% 29.47 inch 8 mi West 17.9 mph - - Regen Regen
12:25 PM 46.4 °F 38.3 °F 39.2 °F 76% 29.44 inch 6.2 mi West-Nordwest 23.0 mph 38.0 mph N/A   Teils Wolkig
12:55 PM 48.2 °F - 37.4 °F 66% 29.44 inch 6.2 mi West-Nordwest 20.7 mph 36.8 mph N/A   Unbekannt
1:00 PM 48 °F - 38 °F 58% 29.47 inch 7 mi West-Nordwest 22.4 mph - -   Teils Wolkig
1:25 PM 48.2 °F - 37.4 °F 66% 29.47 inch 6.2 mi West-Nordwest 21.9 mph 36.8 mph N/A   Teils Wolkig
1:55 PM 46.4 °F 38.1 °F 37.4 °F 71% 29.44 inch 6.2 mi West 24.2 mph 36.8 mph N/A   Teils Wolkig
2:00 PM 47 °F - 38 °F 61% 29.48 inch 9 mi West 22.4 mph - -   Bedeckt
2:25 PM 46.4 °F 38.1 °F 37.4 °F 71% 29.47 inch 6.2 mi West 24.2 mph - N/A   Wolkig
2:55 PM 41.0 °F 31.9 °F 35.6 °F 81% 29.47 inch 1.8 mi West-Nordwest 19.6 mph 31.1 mph N/A Regen Starke Regenschauer
3:00 PM 42 °F - 38 °F 82% 29.49 inch 2 mi West-Nordwest 17.9 mph - - Regen Regenschauer
3:25 PM 44.6 °F 36.9 °F 39.2 °F 81% 29.47 inch 6.2 mi West 18.4 mph 29.9 mph N/A Regen Leichter Regen
3:55 PM 44.6 °F 36.6 °F 37.4 °F 76% 29.50 inch 6.2 mi West 19.6 mph - N/A   Wolkig
4:00 PM 45 °F - 37 °F 66% 29.52 inch 9 mi West 20.1 mph - - Regen Regen
4:25 PM 44.6 °F 36.6 °F 37.4 °F 76% 29.50 inch 6.2 mi West 19.6 mph - N/A   Teils Wolkig
4:55 PM 44.6 °F 36.9 °F 35.6 °F 71% 29.50 inch 6.2 mi West 18.4 mph - N/A   Wolkig
5:00 PM 44 °F - 36 °F 66% 29.53 inch 7 mi West 15.7 mph - - Regen Regen
5:25 PM 44.6 °F 37.8 °F 35.6 °F 71% 29.50 inch 6.2 mi West 15.0 mph 27.6 mph N/A   Teils Wolkig
5:55 PM 42.8 °F 35.1 °F 35.6 °F 76% 29.53 inch 6.2 mi West 16.1 mph - N/A   Teils Wolkig
6:00 PM 44 °F - 36 °F 64% 29.54 inch 7 mi West 17.9 mph - - Regen Regenschauer
6:25 PM 44.6 °F 36.9 °F 35.6 °F 71% 29.53 inch 5.6 mi West 18.4 mph 29.9 mph N/A Regen Leichter Regen
6:55 PM 44.6 °F 36.9 °F 35.6 °F 71% 29.53 inch 6.2 mi West 18.4 mph - N/A   Wolkig
7:00 PM 43 °F - 35 °F 65% 29.56 inch 8 mi West 17.9 mph - - Regen Regen
7:25 PM 42.8 °F 35.1 °F 35.6 °F 76% 29.53 inch 6.2 mi West 16.1 mph 27.6 mph N/A   Teils Wolkig
7:55 PM 42.8 °F 34.5 °F 33.8 °F 70% 29.56 inch 6.2 mi West 18.4 mph 31.1 mph N/A   Teils Wolkig
8:00 PM 43 °F - 34 °F 61% 29.58 inch 8 mi West 17.9 mph - - Regen Nieselregen
8:25 PM 42.8 °F 34.5 °F 33.8 °F 70% 29.56 inch 6.2 mi West 18.4 mph - N/A   Teils Wolkig
8:55 PM 42.8 °F 34.3 °F 33.8 °F 70% 29.56 inch 6.2 mi West 19.6 mph - N/A   Teils Wolkig
9:00 PM 42 °F - 34 °F 63% 29.60 inch 9 mi West 20.1 mph - -   Teils Wolkig
9:25 PM 42.8 °F 35.1 °F 33.8 °F 70% 29.59 inch 6.2 mi West 16.1 mph 33.4 mph N/A   Teils Wolkig
9:55 PM 41.0 °F 33.1 °F 33.8 °F 76% 29.59 inch 6.2 mi West 15.0 mph - N/A   Teils Wolkig
10:00 PM 41 °F - 33 °F 64% 29.60 inch 10 mi West 13.4 mph - - Regen Nieselregen
10:25 PM 41.0 °F 30.9 °F 33.8 °F 76% 29.59 inch 6.2 mi West 24.2 mph 40.3 mph N/A Regen Leichter Regen
10:55 PM 42.8 °F 35.1 °F 33.8 °F 70% 29.62 inch 6.2 mi West 16.1 mph 31.1 mph N/A   Teils Wolkig
11:00 PM 42 °F - 33 °F 60% 29.62 inch 8 mi West 15.7 mph - - Regen Regen
11:25 PM 42.8 °F 34.3 °F 32.0 °F 66% 29.62 inch 6.2 mi West 19.6 mph 34.5 mph N/A   Nieselregen
11:55 PM 41.0 °F 31.1 °F 33.8 °F 76% 29.62 inch 6.2 mi West 23.0 mph 36.8 mph N/A   Wolkig